AirNav   Pilot Hours Calculator
 
 608 users online  

2MU1 Saint Louis Children's Hospital Heliport
Saint Louis, Missouri, USA

GOING TO SAINT LOUIS?


FAA INFORMATION EFFECTIVE 28 MARCH 2019

Location

FAA Identifier: 2MU1
Lat/Long: 38-38-16.7000N / 090-15-53.6500W
38-38.278333N / 090-15.894167W
38.6379722 / -90.2649028
(estimated)
Elevation: 610 ft. / 186 m (estimated)
Variation: 01E (1995)
Time zone: UTC -5 (UTC -6 during Standard Time)
Zip code: 63110

Heliport Operations

Heliport use: Private use, MEDICAL USE.
Activation date: 07/1997
Control tower: no
ARTCC: KANSAS CITY CENTER
FSS: SAINT LOUIS FLIGHT SERVICE STATION
Attendance: ON CALL
Wind indicator: yes
Segmented circle: no
Lights: FOR PERIMETER LGTS CALL 417-434-6000.

Heliport Communications

WX ASOS at CPS (7 nm SE): PHONE 618-332-0001
WX ASOS at STL (8 nm NW): PHONE 314-890-4790
WX ASOS at SUS (18 nm W): 134.8 (314-890-7255)
WX AWOS-3 at ALN (18 nm NE): 128.0 (618-259-7231)
WX ASOS at SET (19 nm NW): 118.075 (636-250-4590)

Nearby radio navigation aids

VOR radial/distance  VOR name  Freq  Var
CSXr147/8.2CARDINAL VOR/DME116.4500E
STLr142/16.8ST LOUIS VORTAC117.4001E
TOYr245/17.3TROY VORTAC116.0004E
FTZr091/33.3FORISTELL VORTAC110.8005E

 
NDB name  Hdg/Dist  Freq  Var  ID
ZUMAY177/9.040401WST ... -
ACORE306/12.035000ECP -.-. .--.
EAVES101/13.422701WFZ ..-. --..
OBLIO136/13.833801WLM .-.. --
CIVIC MEMORIAL214/18.126301WCVM -.-. ...- --

Heliport Services

Runway Information

Helipad H1

Dimensions: 60 x 60 ft. / 18 x 18 m
Surface: concrete
Runway edge lights: PERI
Latitude: 38-38.278333N
Longitude: 090-15.894167W
Elevation: 610.0 ft.
Traffic pattern: leftleft

Heliport Ownership and Management from official FAA records

Ownership: Privately-owned
Owner: SAINT LOUIS CHILDREN'S HOSP.
1 CHILDREN'S PLACE
SAINT LOUIS, MO 63110-1077
Phone 314-454-6000
Manager: FACILITIES MANAGER
1 CHILDREN'S PLACE
SAINT LOUIS, MO 63110-1077
Phone 314-454-6000

Additional Remarks

ROOFTOP.
OWNER DESIRES HELIPORT NOT BE CHARTED.
FOR CD CTC ST LOUIS APCH AT 314-890-1018.

Instrument Procedures

There are no published instrument procedures at 2MU1.

Some nearby airports with instrument procedures:

KCPS - St Louis Downtown Airport (7 nm SE)
KSTL - St Louis Lambert International Airport (8 nm NW)
1H0 - Creve Coeur Airport (13 nm NW)
KSUS - Spirit of St Louis Airport (18 nm W)
KALN - St Louis Regional Airport (18 nm NE)
KSET - St Charles County Smartt Airport (19 nm NW)
 
Loc | Ops | Rwys | IFR | FBO | Links
Com | Nav | Svcs | Stats | Notes

Kansas City Aviation Department
 
Area around 2MU1 (Saint Louis Children's Hospital Heliport)
 
Road maps at: MapQuest Bing Google
 
Aerial photo
No photo
 
Sectional chart

 
Airport distance calculator
Flying to Saint Louis Children's Hospital Heliport? Find the distance to fly.

From to 2MU1

Sunrise and sunset
Times for 22-Apr-2019
 Local
(UTC-5)
 Zulu
(UTC)
Morning civil twilight05:4810:48
Sunrise06:1611:16
Sunset19:4300:43
Evening civil twilight20:1101:11

Current date and time
Zulu (UTC)  22-Apr-2019 11:32:58
Local (UTC-5)  22-Apr-2019 06:32:58
 
METAR
KCPS 
7nm SE 
221053Z AUTO 14005KT 10SM CLR 14/09 A3004 RMK AO2 SLP171 T01440094 $
KSTL 
8nm NW 
221051Z 14004KT 10SM BKN150 BKN250 17/09 A3005 RMK AO2 SLP166 T01720089
KSUS 
18nm W 
221054Z AUTO 00000KT 10SM CLR 18/09 A3003 RMK AO2 SLP162 T01780089
KALN 
18nm NE 
221115Z AUTO 12007KT 10SM CLR 13/11 A3006 RMK AO2 T01300110
KSET 
19nm NW 
221054Z AUTO 15004KT 10SM CLR 16/11 A3003 RMK AO2 SLP165 T01610106
TAF
KCPS 
7nm SE 
220520Z 2206/2306 16008KT P6SM BKN250 FM221400 17010G21KT P6SM SCT250 FM222300 20008KT P6SM BKN070
KSTL 
8nm NW 
220855Z 2209/2312 17010KT P6SM BKN150 FM222000 20014G21KT P6SM SCT250 FM230000 20011KT P6SM BKN120 FM230800 25007KT P6SM BKN020 FM231100 28006KT P6SM BKN035
KSUS 
18nm W 
220520Z 2206/2306 17007KT P6SM BKN250 FM222000 20011G18KT P6SM BKN200
NOTAMs
Click for the latest NOTAMs
NOTAMs are issued by the DoD/FAA and will open in a separate window not controlled by AirNav.

 

 
 

Would you like to see your business listed on this page?

 If your business provides an interesting product or service to pilots, flight crews, aircraft, or users of the Saint Louis Children's Hospital Heliport, you should consider listing it here.  To start the listing process, click on the button below
 
Add a business
 

Other Pages about Saint Louis Children's Hospital Heliport

Update a link
 
Copyright © AirNav, LLC. All rights reserved. Privacy Policy  Contact